FW6788 Weather Reports


time (UTC)temp
C
wind
direction
speed
KPH
gust
KPH
rain 1hr
cm
rain 24hr
cm
rain mn
cm
humidity
%
barometer
mb
20260506203044 14 126 0.0 0.0 0.00 0.00 0.00 75 1015.6
20260506201542 14 126 0.0 0.0 0.00 0.00 0.00 73 1015.3
20260506200043 15 126 0.0 0.0 0.00 0.00 0.00 72 1015.3
20260506194542 15 169 0.0 1.6 0.00 0.00 0.00 72 1015.0
20260506193039 15 135 0.0 1.6 0.00 0.00 0.00 71 1014.7
20260506191537 15 142 0.0 0.0 0.00 0.00 0.00 71 1014.5
20260506190037 15 146 0.0 6.4 0.00 0.00 0.00 70 1014.3
20260506184535 15 138 0.0 4.8 0.00 0.03 0.00 68 1014.1
20260506183035 16 150 0.0 11.3 0.00 0.03 0.00 65 1014.0
20260506181534 16 142 0.0 14.5 0.00 0.03 0.00 60 1013.9
20260506180036 16 153 1.6 9.7 0.00 0.03 0.00 57 1013.6
20260506174533 16 136 3.2 8.0 0.00 0.03 0.00 58 1013.6
20260506173036 16 221 0.0 14.5 0.00 0.03 0.00 57 1013.5
20260506171532 16 121 0.0 8.0 0.00 0.03 0.00 59 1013.3
20260506170031 17 101 3.2 17.7 0.00 0.03 0.00 59 1013.2
20260506164531 17 146 4.8 16.1 0.00 0.03 0.00 59 1013.1
20260506163032 17 178 8.0 17.7 0.00 0.03 0.00 59 1013.1
20260506161534 17 107 1.6 24.1 0.00 0.03 0.00 57 1013.2
20260506160030 17 162 6.4 17.7 0.00 0.03 0.00 55 1013.1
20260506154529 17 90 1.6 22.5 0.00 0.03 0.00 55 1013.1
20260506153028 18 125 3.2 20.9 0.00 0.03 0.00 54 1013.2
20260506151528 18 130 1.6 17.7 0.00 0.03 0.00 55 1013.2
20260506150027 18 96 1.6 22.5 0.00 0.03 0.00 53 1013.3
20260506144526 18 152 3.2 22.5 0.00 0.03 0.00 53 1013.4
20260506143029 18 150 3.2 22.5 0.00 0.03 0.00 52 1013.4
20260506141532 19 102 1.6 19.3 0.00 0.03 0.00 53 1013.4
20260506140023 18 120 4.8 19.3 0.00 0.03 0.00 50 1013.6
20260506134523 18 138 4.8 24.1 0.00 0.03 0.00 48 1013.7
20260506133025 19 177 4.8 19.3 0.00 0.03 0.00 48 1013.8
20260506131525 18 163 3.2 22.5 0.00 0.03 0.00 49 1013.9
20260506130023 18 110 3.2 17.7 0.00 0.03 0.00 50 1014.0
20260506124521 18 115 4.8 17.7 0.00 0.03 0.00 50 1014.1
20260506123020 19 98 0.0 19.3 0.00 0.03 0.00 49 1014.2
20260506121525 19 157 1.6 17.7 0.00 0.03 0.00 47 1014.3
20260506120026 19 76 4.8 20.9 0.00 0.03 0.00 46 1014.2
20260506114518 19 85 0.0 17.7 0.00 0.03 0.00 48 1014.1
20260506113017 19 128 1.6 12.9 0.00 0.03 0.00 50 1014.3
20260506111512 18 110 0.0 4.8 0.00 0.03 0.00 52 1014.3
20260506110014 18 340 4.8 12.9 0.00 0.03 0.00 50 1014.4
20260506104510 18 88 1.6 8.0 0.00 0.03 0.00 52 1014.5
20260506103010 18 111 1.6 8.0 0.00 0.03 0.00 52 1014.6
20260506101506 17 127 1.6 9.7 0.00 0.03 0.00 52 1014.6
20260506100005 17 107 0.0 11.3 0.00 0.03 0.00 54 1014.7
20260506094501 16 5 0.0 17.7 0.00 0.03 0.00 57 1014.9
20260506093100 16 62 0.0 14.5 0.00 0.03 0.00 57 1015.0
20260506091559 16 319 0.0 9.7 0.00 0.03 0.00 56 1014.8
20260506090057 16 55 0.0 6.4 0.00 0.03 0.00 56 1014.8
20260506084557 15 123 0.0 14.5 0.00 0.05 0.00 59 1015.0
20260506083058 16 5 4.8 9.7 0.00 0.05 0.00 59 1014.8
20260506081550 15 163 0.0 4.8 0.00 0.05 0.00 60 1014.8
20260506073046 13 155 1.6 16.1 0.00 0.05 0.00 67 1014.4
20260506071538 13 317 0.0 22.5 0.00 0.05 0.00 69 1014.4
20260506061530 12 312 12.9 29.0 0.00 0.05 0.00 70 1013.6
20260506044532 11 74 0.0 14.5 0.00 0.05 0.00 71 1013.3
20260506043022 12 279 3.2 12.9 0.00 0.05 0.00 71 1013.1
20260506041517 12 263 0.0 0.0 0.00 0.05 0.00 70 1013.3
20260506040015 12 263 0.0 0.0 0.00 0.05 0.00 69 1013.3
20260506034514 12 277 0.0 0.0 0.00 0.05 0.00 70 1013.2
20260506033013 12 275 1.6 14.5 0.00 0.05 0.00 74 1013.2
20260506031512 12 304 4.8 14.5 0.00 0.05 0.00 74 1013.1
20260506030013 12 298 4.8 11.3 0.00 0.05 0.00 74 1013.2
20260506024516 12 307 0.0 8.0 0.00 0.05 0.00 74 1013.2
20260506023016 12 257 0.0 14.5 0.00 0.05 0.00 75 1013.3
20260506021508 11 292 0.0 0.0 0.00 0.05 0.00 77 1013.3
20260506020007 11 65 0.0 0.0 0.00 0.05 0.00 81 1013.1
20260506014506 12 65 0.0 1.6 0.00 0.05 0.00 79 1013.0
20260506013006 12 355 0.0 9.7 0.00 0.05 0.00 78 1012.9
20260506011514 11 335 0.0 0.0 0.00 0.05 0.00 81 1012.9
20260506010003 12 335 0.0 1.6 0.00 0.05 0.00 81 1013.0
20260506004508 12 341 0.0 9.7 0.00 0.05 0.00 83 1013.1
20260506003100 12 344 0.0 1.6 0.00 0.05 0.00 82 1013.2
20260506001600 12 19 0.0 1.6 0.00 0.05 0.00 81 1013.3
20260506000059 13 342 0.0 1.6 0.00 0.05 0.00 78 1013.3
20260505234553 13 254 0.0 6.4 0.00 0.05 0.00 77 1013.3
20260505233050 13 271 0.0 9.7 0.00 0.05 0.00 77 1013.3
20260505231548 14 351 0.0 1.6 0.00 0.05 0.00 77 1012.9
20260505230047 14 257 0.0 1.6 0.00 0.05 0.00 76 1012.9
20260505224546 14 182 0.0 11.3 0.00 0.05 0.00 76 1013.1
20260505223044 14 301 0.0 1.6 0.00 0.05 0.00 75 1013.6
20260505221551 14 295 0.0 12.9 0.00 0.05 0.00 73 1013.7
20260505220053 14 206 0.0 12.9 0.00 0.05 0.00 73 1013.8
20260505214546 14 308 0.0 19.3 0.00 0.05 0.05 71 1013.7
20260505213040 14 316 11.3 19.3 0.00 0.05 0.05 70 1013.8
20260505211540 15 274 0.0 9.7 0.00 0.05 0.05 68 1013.6
20260505210045 15 281 1.6 16.1 0.00 0.05 0.05 67 1013.5
20260505204540 14 271 0.0 1.6 0.00 0.08 0.05 70 1013.2